| time (UTC) | temp F | wind direction | speed knots | gust knots | rain 1hr in | rain 24hr in | rain mn in | humidity % | barometer mb |
| 20260510045059 | 57 | 81 | 1.7 | 2.6 | 0.00 | 0.00 | 0.00 | 74 | 1013.3 |
| 20260510044556 | 57 | 252 | 0.9 | 1.7 | 0.00 | 0.00 | 0.00 | 75 | 1013.1 |
| 20260510044054 | 57 | 89 | 0.9 | 2.6 | 0.00 | 0.00 | 0.00 | 75 | 1013.2 |
| 20260510043549 | 56 | 118 | 0.0 | 1.7 | 0.00 | 0.00 | 0.00 | 77 | 1013.4 |
| 20260510043045 | 57 | 90 | 1.7 | 2.6 | 0.00 | 0.00 | 0.00 | 75 | 1013.1 |
| 20260510042544 | 56 | 136 | 0.0 | 1.7 | 0.00 | 0.00 | 0.00 | 77 | 1013.0 |
| 20260510042040 | 56 | 180 | 0.0 | 0.9 | 0.00 | 0.00 | 0.00 | 76 | 1013.0 |
| 20260510041537 | 55 | 90 | 1.7 | 1.7 | 0.00 | 0.00 | 0.00 | 79 | 1012.8 |
| 20260510041034 | 55 | 84 | 0.0 | 0.0 | 0.00 | 0.00 | 0.00 | 79 | 1012.9 |
| 20260510040531 | 55 | 151 | 0.0 | 0.0 | 0.00 | 0.00 | 0.00 | 79 | 1012.9 |
| 20260510040027 | 55 | 205 | 0.0 | 0.0 | 0.00 | 0.21 | 0.21 | 80 | 1012.9 |
| 20260510035523 | 54 | 79 | 0.0 | 0.0 | 0.00 | 0.21 | 0.21 | 81 | 1013.0 |
| 20260510035023 | 54 | 166 | 0.0 | 0.0 | 0.00 | 0.21 | 0.21 | 82 | 1012.7 |
| 20260510034522 | 54 | 280 | 0.0 | 0.0 | 0.00 | 0.21 | 0.21 | 82 | 1013.0 |
| 20260510034018 | 54 | 98 | 0.0 | 0.0 | 0.00 | 0.21 | 0.21 | 82 | 1012.7 |
| 20260510033514 | 54 | 208 | 0.0 | 0.0 | 0.00 | 0.21 | 0.21 | 82 | 1012.6 |
| 20260510033012 | 55 | 291 | 0.0 | 0.0 | 0.00 | 0.21 | 0.21 | 81 | 1012.6 |
| 20260510032508 | 55 | 273 | 0.0 | 0.0 | 0.00 | 0.21 | 0.21 | 80 | 1012.7 |
| 20260510032008 | 54 | 240 | 0.0 | 1.7 | 0.00 | 0.21 | 0.21 | 80 | 1012.7 |
| 20260510031504 | 54 | 116 | 0.0 | 0.0 | 0.00 | 0.21 | 0.21 | 83 | 1012.6 |
| 20260510031000 | 53 | 235 | 0.0 | 0.0 | 0.00 | 0.21 | 0.21 | 83 | 1012.5 |
| 20260510030455 | 53 | 189 | 0.0 | 0.0 | 0.00 | 0.21 | 0.21 | 83 | 1012.5 |
| 20260510025953 | 54 | 241 | 0.0 | 0.9 | 0.00 | 0.21 | 0.21 | 82 | 1012.5 |
| 20260510025450 | 53 | 259 | 0.0 | 0.0 | 0.00 | 0.21 | 0.21 | 82 | 1012.5 |
| 20260510024948 | 53 | 159 | 0.0 | 0.0 | 0.00 | 0.21 | 0.21 | 83 | 1012.4 |
| 20260510024444 | 53 | 298 | 0.0 | 0.0 | 0.00 | 0.21 | 0.21 | 83 | 1012.4 |
| 20260510023940 | 53 | 198 | 0.0 | 0.0 | 0.00 | 0.21 | 0.21 | 83 | 1012.2 |
| 20260510023436 | 53 | 195 | 0.0 | 0.0 | 0.00 | 0.21 | 0.21 | 82 | 1012.3 |
| 20260510022933 | 53 | 193 | 0.0 | 0.0 | 0.00 | 0.21 | 0.21 | 83 | 1012.2 |
| 20260510022432 | 53 | 252 | 0.0 | 0.0 | 0.00 | 0.21 | 0.21 | 82 | 1012.2 |
| 20260510021931 | 53 | 194 | 0.0 | 0.0 | 0.00 | 0.21 | 0.21 | 82 | 1012.2 |
| 20260510021430 | 53 | 114 | 0.0 | 0.0 | 0.00 | 0.21 | 0.21 | 82 | 1012.1 |
| 20260510020926 | 53 | 297 | 0.0 | 0.0 | 0.00 | 0.21 | 0.21 | 81 | 1011.9 |
| 20260510020421 | 54 | 209 | 0.0 | 0.0 | 0.00 | 0.21 | 0.21 | 82 | 1012.2 |
| 20260510015917 | 54 | 339 | 0.0 | 0.9 | 0.00 | 0.21 | 0.21 | 80 | 1012.1 |
| 20260510015413 | 54 | 199 | 0.0 | 0.9 | 0.00 | 0.21 | 0.21 | 80 | 1012.0 |
| 20260510014908 | 55 | 335 | 0.9 | 0.9 | 0.00 | 0.21 | 0.21 | 77 | 1011.9 |
| 20260510014406 | 55 | 136 | 0.0 | 0.0 | 0.00 | 0.21 | 0.21 | 77 | 1011.8 |
| 20260510013902 | 56 | 284 | 0.0 | 0.0 | 0.00 | 0.21 | 0.21 | 75 | 1011.8 |
| 20260510013357 | 55 | 210 | 0.0 | 0.0 | 0.00 | 0.21 | 0.21 | 77 | 1011.6 |
| 20260510012852 | 55 | 238 | 0.0 | 0.0 | 0.00 | 0.21 | 0.21 | 80 | 1011.7 |
| 20260510012347 | 55 | 253 | 0.0 | 0.0 | 0.00 | 0.21 | 0.21 | 78 | 1011.5 |
| 20260510011842 | 55 | 199 | 0.0 | 0.0 | 0.00 | 0.21 | 0.21 | 77 | 1011.5 |
| 20260510011338 | 55 | 207 | 0.0 | 0.0 | 0.00 | 0.21 | 0.21 | 77 | 1011.5 |
| 20260510010834 | 56 | 227 | 0.0 | 0.0 | 0.00 | 0.21 | 0.21 | 76 | 1011.3 |
| 20260510010332 | 56 | 171 | 0.0 | 0.0 | 0.00 | 0.21 | 0.21 | 73 | 1011.2 |
| 20260510005828 | 57 | 166 | 0.0 | 0.0 | 0.00 | 0.21 | 0.21 | 72 | 1011.2 |
| 20260510005325 | 57 | 208 | 0.0 | 0.0 | 0.00 | 0.21 | 0.21 | 72 | 1011.3 |
| 20260510004822 | 58 | 247 | 0.0 | 0.0 | 0.00 | 0.21 | 0.21 | 71 | 1011.3 |
| 20260510004320 | 59 | 97 | 0.0 | 0.9 | 0.00 | 0.21 | 0.21 | 68 | 1011.0 |
| 20260510003817 | 59 | 167 | 0.0 | 0.0 | 0.00 | 0.21 | 0.21 | 68 | 1011.3 |
| 20260510003314 | 59 | 129 | 0.0 | 0.0 | 0.00 | 0.21 | 0.21 | 67 | 1011.0 |
| 20260510002813 | 60 | 227 | 0.0 | 0.0 | 0.00 | 0.21 | 0.21 | 66 | 1010.8 |
| 20260510002310 | 61 | 201 | 0.0 | 0.0 | 0.00 | 0.21 | 0.21 | 65 | 1010.8 |
| 20260510001806 | 62 | 146 | 0.0 | 0.0 | 0.00 | 0.21 | 0.21 | 62 | 1010.8 |
| 20260510001305 | 63 | 216 | 0.0 | 0.0 | 0.00 | 0.21 | 0.21 | 62 | 1010.5 |
| 20260510000800 | 63 | 127 | 0.0 | 0.0 | 0.00 | 0.21 | 0.21 | 60 | 1010.4 |
| 20260510000258 | 65 | 211 | 0.0 | 0.9 | 0.00 | 0.21 | 0.21 | 60 | 1010.3 |
| 20260509235755 | 66 | 120 | 0.0 | 1.7 | 0.00 | 0.21 | 0.21 | 59 | 1010.4 |
| 20260509235251 | 66 | 321 | 0.0 | 2.6 | 0.00 | 0.21 | 0.21 | 59 | 1010.4 |
| 20260509234747 | 67 | 239 | 1.7 | 2.6 | 0.00 | 0.21 | 0.21 | 59 | 1010.2 |
| 20260509234244 | 67 | 20 | 0.0 | 0.0 | 0.00 | 0.21 | 0.21 | 57 | 1010.4 |
| 20260509233743 | 67 | 36 | 0.0 | 1.7 | 0.00 | 0.21 | 0.21 | 57 | 1010.5 |
| 20260509233240 | 67 | 319 | 0.9 | 3.5 | 0.00 | 0.21 | 0.21 | 58 | 1010.2 |
| 20260509232736 | 67 | 230 | 1.7 | 2.6 | 0.00 | 0.21 | 0.21 | 58 | 1010.0 |
| 20260509232233 | 68 | 268 | 2.6 | 6.1 | 0.00 | 0.21 | 0.21 | 59 | 1010.2 |
| 20260509231729 | 68 | 348 | 1.7 | 3.5 | 0.00 | 0.21 | 0.21 | 55 | 1010.4 |
| 20260509231227 | 67 | 307 | 4.3 | 6.1 | 0.00 | 0.21 | 0.21 | 56 | 1010.4 |
| 20260509230724 | 68 | 306 | 3.5 | 6.1 | 0.00 | 0.21 | 0.21 | 55 | 1010.1 |
| 20260509230221 | 68 | 156 | 0.0 | 5.2 | 0.00 | 0.21 | 0.21 | 56 | 1010.3 |
| 20260509225716 | 68 | 259 | 1.7 | 3.5 | 0.00 | 0.21 | 0.21 | 55 | 1010.3 |
| 20260509225212 | 69 | 333 | 3.5 | 3.5 | 0.00 | 0.21 | 0.21 | 56 | 1010.6 |
| 20260509224708 | 69 | 327 | 1.7 | 2.6 | 0.00 | 0.21 | 0.21 | 54 | 1010.6 |
| 20260509224205 | 69 | 139 | 0.0 | 2.6 | 0.00 | 0.21 | 0.21 | 54 | 1010.6 |
| 20260509223702 | 69 | 304 | 2.6 | 7.0 | 0.00 | 0.21 | 0.21 | 55 | 1010.4 |
| 20260509223159 | 69 | 254 | 2.6 | 6.1 | 0.00 | 0.21 | 0.21 | 54 | 1010.6 |
| 20260509222656 | 68 | 321 | 7.0 | 8.7 | 0.00 | 0.21 | 0.21 | 55 | 1010.6 |
| 20260509222152 | 68 | 304 | 1.7 | 7.8 | 0.00 | 0.21 | 0.21 | 55 | 1010.5 |
| 20260509221647 | 68 | 326 | 4.3 | 8.7 | 0.00 | 0.21 | 0.21 | 56 | 1010.5 |
| 20260509221143 | 67 | 311 | 3.5 | 7.0 | 0.00 | 0.21 | 0.21 | 56 | 1010.5 |
| 20260509220640 | 68 | 231 | 3.5 | 11.3 | 0.00 | 0.21 | 0.21 | 55 | 1010.5 |
| 20260509220136 | 68 | 265 | 0.0 | 7.0 | 0.00 | 0.21 | 0.21 | 53 | 1010.6 |
| 20260509215632 | 68 | 344 | 8.7 | 12.2 | 0.00 | 0.21 | 0.21 | 55 | 1010.5 |
| 20260509215128 | 68 | 324 | 3.5 | 7.0 | 0.00 | 0.21 | 0.21 | 56 | 1010.4 |
| 20260509214626 | 68 | 327 | 6.1 | 7.8 | 0.00 | 0.21 | 0.21 | 54 | 1010.5 |
| 20260509214117 | 68 | 330 | 5.2 | 12.2 | 0.00 | 0.21 | 0.21 | 56 | 1010.5 |
| 20260509213613 | 69 | 332 | 7.0 | 11.3 | 0.00 | 0.21 | 0.21 | 57 | 1010.4 |
| 20260509213109 | 69 | 325 | 1.7 | 3.5 | 0.00 | 0.21 | 0.21 | 58 | 1010.7 |
| 20260509212607 | 70 | 256 | 3.5 | 5.2 | 0.00 | 0.21 | 0.21 | 57 | 1010.5 |
| 20260509212104 | 69 | 64 | 0.9 | 7.8 | 0.00 | 0.21 | 0.21 | 55 | 1010.5 |
| 20260509211600 | 68 | 221 | 3.5 | 7.0 | 0.00 | 0.21 | 0.21 | 57 | 1010.7 |
| 20260509211057 | 69 | 309 | 1.7 | 2.6 | 0.00 | 0.21 | 0.21 | 58 | 1010.5 |
| 20260509210553 | 68 | 327 | 0.0 | 2.6 | 0.00 | 0.21 | 0.21 | 58 | 1010.8 |
| 20260509210050 | 68 | 44 | 4.3 | 6.1 | 0.00 | 0.21 | 0.21 | 57 | 1010.5 |
| 20260509205543 | 68 | 313 | 2.6 | 5.2 | 0.00 | 0.21 | 0.21 | 56 | 1010.6 |
| 20260509205039 | 66 | 241 | 5.2 | 8.7 | 0.00 | 0.21 | 0.21 | 58 | 1010.6 |
| 20260509204536 | 66 | 271 | 0.9 | 6.1 | 0.00 | 0.21 | 0.21 | 60 | 1010.6 |
| 20260509204032 | 67 | 277 | 1.7 | 11.3 | 0.00 | 0.21 | 0.21 | 59 | 1010.9 |
| 20260509203528 | 67 | 229 | 6.1 | 8.7 | 0.00 | 0.21 | 0.21 | 58 | 1010.5 |
| 20260509203027 | 66 | 334 | 7.0 | 7.8 | 0.00 | 0.21 | 0.21 | 61 | 1010.6 |
| 20260509202527 | 67 | 321 | 4.3 | 6.1 | 0.00 | 0.21 | 0.21 | 59 | 1010.7 |
| 20260509202022 | 67 | 300 | 7.8 | 8.7 | 0.00 | 0.21 | 0.21 | 60 | 1010.6 |
| 20260509201517 | 66 | 109 | 0.0 | 3.5 | 0.00 | 0.21 | 0.21 | 58 | 1010.8 |
| 20260509201015 | 67 | 291 | 6.1 | 7.8 | 0.00 | 0.21 | 0.21 | 60 | 1010.8 |
| 20260509200510 | 68 | 6 | 3.5 | 8.7 | 0.00 | 0.21 | 0.21 | 57 | 1011.0 |
| 20260509200007 | 67 | 315 | 1.7 | 14.8 | 0.00 | 0.21 | 0.21 | 58 | 1011.2 |
| 20260509195502 | 66 | 305 | 6.1 | 13.0 | 0.00 | 0.21 | 0.21 | 60 | 1011.3 |
| 20260509195001 | 67 | 315 | 7.8 | 9.6 | 0.00 | 0.21 | 0.21 | 59 | 1011.2 |
| 20260509194457 | 67 | 303 | 1.7 | 5.2 | 0.00 | 0.21 | 0.21 | 59 | 1011.3 |
| 20260509193954 | 67 | 281 | 0.9 | 2.6 | 0.00 | 0.21 | 0.21 | 57 | 1011.4 |
| 20260509193454 | 66 | 307 | 2.6 | 6.1 | 0.00 | 0.21 | 0.21 | 60 | 1011.4 |
| 20260509192950 | 65 | 293 | 5.2 | 8.7 | 0.00 | 0.21 | 0.21 | 60 | 1011.6 |
| 20260509192447 | 64 | 155 | 0.0 | 7.0 | 0.00 | 0.21 | 0.21 | 60 | 1011.4 |
| 20260509191942 | 65 | 356 | 1.7 | 3.5 | 0.00 | 0.21 | 0.21 | 61 | 1011.5 |
| 20260509191438 | 65 | 333 | 3.5 | 8.7 | 0.00 | 0.21 | 0.21 | 60 | 1011.2 |
| 20260509190934 | 65 | 329 | 2.6 | 6.1 | 0.00 | 0.21 | 0.21 | 61 | 1011.5 |
| 20260509190431 | 66 | 313 | 4.3 | 7.0 | 0.00 | 0.21 | 0.21 | 61 | 1011.4 |
| 20260509185929 | 64 | 202 | 2.6 | 2.6 | 0.00 | 0.21 | 0.21 | 64 | 1011.6 |
| 20260509185426 | 63 | 320 | 2.6 | 7.0 | 0.00 | 0.21 | 0.21 | 63 | 1011.6 |
| 20260509184922 | 64 | 311 | 7.8 | 7.8 | 0.00 | 0.21 | 0.21 | 63 | 1011.7 |
| 20260509184420 | 64 | 337 | 1.7 | 2.6 | 0.00 | 0.21 | 0.21 | 64 | 1011.6 |
| 20260509183917 | 63 | 188 | 1.7 | 5.2 | 0.00 | 0.21 | 0.21 | 68 | 1011.5 |
| 20260509183411 | 62 | 351 | 0.9 | 1.7 | 0.00 | 0.21 | 0.21 | 70 | 1011.5 |
| 20260509182908 | 62 | 314 | 1.7 | 3.5 | 0.00 | 0.21 | 0.21 | 70 | 1011.7 |
| 20260509182404 | 62 | 351 | 0.0 | 1.7 | 0.00 | 0.21 | 0.21 | 70 | 1011.8 |
| 20260509181902 | 61 | 298 | 1.7 | 3.5 | 0.00 | 0.21 | 0.21 | 70 | 1011.7 |
| 20260509181359 | 61 | 62 | 0.0 | 1.7 | 0.00 | 0.21 | 0.21 | 72 | 1011.7 |
| 20260509180856 | 61 | 24 | 1.7 | 1.7 | 0.00 | 0.21 | 0.21 | 71 | 1011.8 |
| 20260509180352 | 60 | 278 | 0.0 | 0.9 | 0.00 | 0.21 | 0.21 | 75 | 1011.7 |
| 20260509175849 | 60 | 88 | 0.0 | 0.0 | 0.00 | 0.21 | 0.21 | 75 | 1011.7 |
| 20260509175345 | 60 | 61 | 0.0 | 2.6 | 0.00 | 0.21 | 0.21 | 74 | 1011.6 |
| 20260509174841 | 59 | 193 | 0.0 | 3.5 | 0.00 | 0.21 | 0.21 | 76 | 1011.8 |
| 20260509174337 | 60 | 159 | 2.6 | 5.2 | 0.00 | 0.21 | 0.21 | 76 | 1011.7 |
| 20260509173833 | 60 | 183 | 4.3 | 5.2 | 0.00 | 0.21 | 0.21 | 75 | 1011.7 |
| 20260509173329 | 60 | 115 | 0.0 | 2.6 | 0.00 | 0.21 | 0.21 | 76 | 1011.8 |
| 20260509172825 | 59 | 142 | 1.7 | 5.2 | 0.00 | 0.21 | 0.21 | 77 | 1011.9 |
| 20260509172322 | 59 | 261 | 0.0 | 5.2 | 0.00 | 0.21 | 0.21 | 78 | 1012.0 |
| 20260509171818 | 59 | 128 | 1.7 | 5.2 | 0.00 | 0.21 | 0.21 | 78 | 1011.9 |
| 20260509171314 | 59 | 225 | 1.7 | 5.2 | 0.00 | 0.21 | 0.21 | 78 | 1012.0 |
| 20260509170810 | 58 | 26 | 0.0 | 0.0 | 0.00 | 0.21 | 0.21 | 82 | 1011.8 |
| 20260509170306 | 56 | 153 | 0.0 | 0.0 | 0.00 | 0.21 | 0.21 | 83 | 1012.1 |
| 20260509165806 | 56 | 140 | 0.0 | 0.0 | 0.00 | 0.21 | 0.21 | 84 | 1012.1 |
| 20260509165301 | 55 | 166 | 0.0 | 0.0 | 0.00 | 0.21 | 0.21 | 85 | 1012.2 |
| 20260509164757 | 55 | 106 | 0.0 | 0.0 | 0.00 | 0.21 | 0.21 | 85 | 1012.1 |
| 20260509164253 | 55 | 146 | 0.0 | 3.5 | 0.00 | 0.21 | 0.21 | 84 | 1012.0 |
| 20260509163750 | 56 | 245 | 0.0 | 0.0 | 0.00 | 0.21 | 0.21 | 84 | 1012.1 |
| 20260509163246 | 56 | 224 | 1.7 | 2.6 | 0.00 | 0.21 | 0.21 | 83 | 1012.1 |
| 20260509162745 | 56 | 229 | 0.0 | 0.0 | 0.00 | 0.21 | 0.21 | 84 | 1011.9 |
| 20260509162239 | 56 | 166 | 0.0 | 0.0 | 0.00 | 0.21 | 0.21 | 85 | 1012.2 |
| 20260509161735 | 55 | 302 | 0.0 | 0.0 | 0.00 | 0.21 | 0.21 | 85 | 1012.0 |
| 20260509161231 | 55 | 150 | 0.0 | 3.5 | 0.00 | 0.21 | 0.21 | 85 | 1012.2 |
| 20260509160726 | 55 | 257 | 0.0 | 0.9 | 0.00 | 0.21 | 0.21 | 85 | 1012.2 |
| 20260509160223 | 55 | 88 | 0.0 | 0.0 | 0.00 | 0.21 | 0.21 | 85 | 1012.1 |
| 20260509155718 | 54 | 239 | 0.0 | 0.9 | 0.00 | 0.21 | 0.21 | 85 | 1012.2 |
| 20260509155215 | 54 | 49 | 0.0 | 0.0 | 0.00 | 0.21 | 0.21 | 86 | 1012.0 |
| 20260509154711 | 54 | 158 | 0.0 | 1.7 | 0.00 | 0.21 | 0.21 | 84 | 1012.4 |
| 20260509154208 | 54 | 228 | 0.0 | 0.9 | 0.00 | 0.21 | 0.21 | 84 | 1012.6 |
| 20260509153706 | 55 | 141 | 0.0 | 1.7 | 0.00 | 0.21 | 0.21 | 84 | 1012.4 |
| 20260509153202 | 55 | 350 | 0.0 | 0.0 | 0.00 | 0.21 | 0.21 | 85 | 1012.3 |
| 20260509152658 | 55 | 70 | 1.7 | 2.6 | 0.00 | 0.21 | 0.21 | 85 | 1012.5 |
| 20260509152155 | 55 | 297 | 0.0 | 0.0 | 0.00 | 0.21 | 0.21 | 86 | 1012.6 |
| 20260509151651 | 54 | 218 | 0.0 | 0.9 | 0.00 | 0.21 | 0.21 | 86 | 1012.7 |
| 20260509151149 | 54 | 227 | 0.0 | 0.0 | 0.00 | 0.21 | 0.21 | 86 | 1012.6 |
| 20260509150647 | 54 | 269 | 0.0 | 0.0 | 0.00 | 0.21 | 0.21 | 86 | 1012.7 |
| 20260509150144 | 54 | 354 | 0.0 | 0.0 | 0.00 | 0.21 | 0.21 | 86 | 1012.8 |
| 20260509145640 | 54 | 240 | 0.0 | 0.0 | 0.00 | 0.21 | 0.21 | 86 | 1012.8 |
| 20260509145136 | 53 | 16 | 0.0 | 0.0 | 0.00 | 0.21 | 0.21 | 86 | 1012.8 |
| 20260509144633 | 53 | 263 | 0.0 | 2.6 | 0.00 | 0.21 | 0.21 | 85 | 1012.8 |
| 20260509144130 | 54 | 133 | 0.0 | 1.7 | 0.00 | 0.21 | 0.21 | 86 | 1012.9 |
| 20260509143627 | 54 | 281 | 0.0 | 0.0 | 0.00 | 0.21 | 0.21 | 87 | 1012.8 |
| 20260509143124 | 53 | 149 | 0.0 | 0.0 | 0.00 | 0.21 | 0.21 | 87 | 1012.7 |
| 20260509142619 | 53 | 246 | 0.0 | 0.0 | 0.00 | 0.21 | 0.21 | 88 | 1012.7 |
| 20260509142116 | 53 | 233 | 0.0 | 0.0 | 0.07 | 0.21 | 0.21 | 88 | 1012.7 |
| 20260509141612 | 53 | 154 | 0.0 | 0.0 | 0.07 | 0.21 | 0.21 | 88 | 1012.7 |
| 20260509141109 | 53 | 102 | 0.0 | 0.0 | 0.00 | 0.20 | 0.20 | 88 | 1012.8 |
| 20260509140606 | 53 | 126 | 0.0 | 0.0 | 0.00 | 0.20 | 0.20 | 88 | 1012.5 |
| 20260509140104 | 53 | 68 | 0.0 | 0.0 | 0.00 | 0.20 | 0.20 | 88 | 1012.6 |
| 20260509135601 | 53 | 187 | 0.0 | 0.0 | 0.05 | 0.20 | 0.20 | 88 | 1012.8 |
| 20260509135058 | 53 | 79 | 0.0 | 0.0 | 0.05 | 0.20 | 0.20 | 88 | 1013.0 |
| 20260509134555 | 53 | 95 | 0.0 | 0.0 | 0.00 | 0.19 | 0.19 | 88 | 1013.0 |
| 20260509134053 | 53 | 172 | 0.0 | 0.0 | 0.07 | 0.19 | 0.19 | 88 | 1012.8 |
| 20260509133549 | 52 | 116 | 0.0 | 0.0 | 0.07 | 0.19 | 0.19 | 88 | 1013.0 |
| 20260509133047 | 52 | 147 | 0.0 | 0.0 | 0.00 | 0.18 | 0.18 | 88 | 1012.9 |
| 20260509132545 | 52 | 127 | 0.0 | 0.0 | 0.00 | 0.18 | 0.18 | 88 | 1012.8 |
| 20260509132043 | 52 | 136 | 0.0 | 0.9 | 0.07 | 0.18 | 0.18 | 88 | 1012.8 |
| 20260509131539 | 52 | 199 | 0.0 | 0.0 | 0.07 | 0.18 | 0.18 | 88 | 1012.8 |
| 20260509131036 | 52 | 228 | 0.0 | 0.0 | 0.00 | 0.17 | 0.17 | 88 | 1012.8 |
| 20260509130531 | 52 | 144 | 0.0 | 0.0 | 0.00 | 0.17 | 0.17 | 88 | 1012.9 |
| 20260509130029 | 52 | 119 | 0.0 | 0.0 | 0.00 | 0.17 | 0.17 | 89 | 1013.0 |
| 20260509125525 | 51 | 70 | 0.0 | 0.0 | 0.05 | 0.17 | 0.17 | 89 | 1013.1 |
| 20260509125022 | 51 | 74 | 0.0 | 0.0 | 0.05 | 0.17 | 0.17 | 88 | 1012.9 |
| 20260509124518 | 51 | 123 | 0.0 | 0.0 | 0.00 | 0.16 | 0.16 | 88 | 1013.0 |
| 20260509124016 | 51 | 49 | 0.0 | 0.0 | 0.07 | 0.16 | 0.16 | 88 | 1013.0 |
| 20260509123513 | 51 | 15 | 0.0 | 0.0 | 0.07 | 0.16 | 0.16 | 87 | 1013.0 |
| 20260509123009 | 51 | 84 | 0.0 | 0.0 | 0.05 | 0.15 | 0.15 | 87 | 1013.1 |
| 20260509122506 | 51 | 138 | 0.0 | 0.0 | 0.05 | 0.15 | 0.15 | 87 | 1013.1 |
| 20260509122003 | 51 | 102 | 0.0 | 0.0 | 0.07 | 0.14 | 0.14 | 87 | 1013.1 |
| 20260509121459 | 51 | 83 | 0.0 | 0.0 | 0.07 | 0.14 | 0.14 | 87 | 1013.2 |
| 20260509120958 | 51 | 343 | 0.0 | 0.0 | 0.00 | 0.13 | 0.13 | 87 | 1013.2 |
| 20260509120455 | 51 | 166 | 0.0 | 0.9 | 0.00 | 0.13 | 0.13 | 87 | 1013.0 |
| 20260509115953 | 51 | 156 | 0.0 | 0.9 | 0.00 | 0.13 | 0.13 | 87 | 1013.0 |
| 20260509115450 | 51 | 156 | 0.0 | 0.9 | 0.05 | 0.13 | 0.13 | 87 | 1013.1 |
| 20260509114948 | 51 | 188 | 0.0 | 0.0 | 0.05 | 0.13 | 0.13 | 87 | 1013.3 |
| 20260509114446 | 51 | 186 | 0.0 | 0.0 | 0.00 | 0.12 | 0.12 | 87 | 1013.0 |
| 20260509113945 | 51 | 202 | 0.0 | 0.9 | 0.00 | 0.12 | 0.12 | 87 | 1013.2 |
| 20260509113442 | 51 | 180 | 0.0 | 0.0 | 0.00 | 0.12 | 0.12 | 88 | 1013.2 |
| 20260509112938 | 50 | 222 | 0.0 | 0.0 | 0.07 | 0.12 | 0.12 | 88 | 1013.0 |
| 20260509112436 | 50 | 192 | 0.0 | 0.0 | 0.07 | 0.12 | 0.12 | 88 | 1013.0 |
| 20260509111932 | 50 | 191 | 0.0 | 0.0 | 0.00 | 0.11 | 0.11 | 88 | 1013.1 |
| 20260509111430 | 50 | 266 | 0.0 | 0.0 | 0.00 | 0.11 | 0.11 | 88 | 1012.9 |
| 20260509110927 | 50 | 74 | 0.0 | 0.0 | 0.00 | 0.11 | 0.11 | 88 | 1012.8 |
| 20260509110423 | 50 | 114 | 0.0 | 0.0 | 0.00 | 0.11 | 0.11 | 88 | 1013.0 |
| 20260509105921 | 50 | 287 | 0.0 | 0.0 | 0.05 | 0.11 | 0.11 | 88 | 1012.6 |
| 20260509105420 | 50 | 282 | 0.0 | 0.0 | 0.05 | 0.11 | 0.11 | 87 | 1012.8 |
| 20260509104916 | 50 | 160 | 0.9 | 1.7 | 0.00 | 0.10 | 0.10 | 87 | 1012.7 |
| 20260509104413 | 50 | 196 | 0.0 | 0.0 | 0.07 | 0.10 | 0.10 | 86 | 1012.7 |
| 20260509103911 | 50 | 192 | 0.0 | 0.0 | 0.07 | 0.10 | 0.10 | 86 | 1012.7 |
| 20260509103407 | 50 | 194 | 0.0 | 0.9 | 0.00 | 0.09 | 0.09 | 87 | 1012.9 |
| 20260509102906 | 51 | 181 | 0.0 | 0.0 | 0.05 | 0.09 | 0.09 | 86 | 1012.6 |
| 20260509102403 | 51 | 254 | 0.0 | 0.0 | 0.05 | 0.09 | 0.09 | 85 | 1012.9 |
| 20260509101859 | 51 | 116 | 0.0 | 0.0 | 0.00 | 0.08 | 0.08 | 85 | 1012.8 |
| 20260509101355 | 51 | 195 | 0.0 | 0.0 | 0.00 | 0.08 | 0.08 | 84 | 1012.8 |
| 20260509100853 | 51 | 197 | 0.0 | 1.7 | 0.00 | 0.08 | 0.08 | 83 | 1012.6 |
| 20260509100350 | 51 | 194 | 1.7 | 1.7 | 0.00 | 0.08 | 0.08 | 84 | 1012.8 |
| 20260509095846 | 51 | 289 | 0.0 | 0.0 | 0.00 | 0.08 | 0.08 | 83 | 1012.8 |
| 20260509095344 | 51 | 230 | 0.0 | 1.7 | 0.07 | 0.08 | 0.08 | 83 | 1012.7 |
| 20260509094841 | 51 | 233 | 0.0 | 0.0 | 0.07 | 0.08 | 0.08 | 83 | 1012.8 |
| 20260509094337 | 51 | 233 | 0.9 | 0.9 | 0.00 | 0.07 | 0.07 | 84 | 1012.8 |
| 20260509093835 | 51 | 111 | 0.0 | 0.0 | 0.05 | 0.07 | 0.07 | 83 | 1012.9 |
| 20260509093332 | 51 | 308 | 0.0 | 0.9 | 0.05 | 0.07 | 0.07 | 83 | 1013.2 |
| 20260509092831 | 51 | 242 | 1.7 | 2.6 | 0.00 | 0.06 | 0.06 | 82 | 1013.2 |
| 20260509092328 | 51 | 260 | 0.0 | 1.7 | 0.00 | 0.06 | 0.06 | 82 | 1013.2 |
| 20260509091826 | 51 | 283 | 0.0 | 0.0 | 0.00 | 0.06 | 0.06 | 82 | 1013.3 |
| 20260509091323 | 51 | 268 | 0.9 | 0.9 | 0.07 | 0.06 | 0.06 | 82 | 1013.4 |
| 20260509090820 | 52 | 255 | 0.9 | 5.2 | 0.07 | 0.06 | 0.06 | 81 | 1013.3 |
| 20260509090317 | 52 | 287 | 0.9 | 1.7 | 0.00 | 0.05 | 0.05 | 81 | 1013.4 |
| 20260509085814 | 52 | 278 | 1.7 | 3.5 | 0.00 | 0.05 | 0.05 | 80 | 1013.4 |
| 20260509085312 | 52 | 16 | 3.5 | 7.0 | 0.07 | 0.05 | 0.05 | 80 | 1013.3 |
| 20260509084808 | 52 | 238 | 2.6 | 3.5 | 0.12 | 0.05 | 0.05 | 79 | 1013.3 |
| 20260509084305 | 53 | 282 | 0.9 | 5.2 | 0.12 | 0.04 | 0.04 | 77 | 1013.1 |
| 20260509083803 | 53 | 308 | 1.7 | 5.2 | 0.12 | 0.03 | 0.03 | 75 | 1013.4 |
| 20260509083259 | 54 | 277 | 2.6 | 3.5 | 0.12 | 0.02 | 0.02 | 74 | 1013.3 |
| 20260509082756 | 55 | 267 | 5.2 | 9.6 | 0.07 | 0.01 | 0.01 | 69 | 1013.3 |
| 20260509082252 | 55 | 349 | 6.1 | 8.7 | 0.00 | 0.00 | 0.00 | 67 | 1013.2 |
| 20260509081749 | 56 | 267 | 3.5 | 6.1 | 0.00 | 0.00 | 0.00 | 63 | 1013.2 |
| 20260509081247 | 56 | 299 | 4.3 | 11.3 | 0.00 | 0.00 | 0.00 | 63 | 1013.1 |
| 20260509080745 | 56 | 279 | 6.1 | 11.3 | 0.00 | 0.00 | 0.00 | 62 | 1013.0 |
| 20260509080242 | 55 | 259 | 3.5 | 11.3 | 0.00 | 0.00 | 0.00 | 62 | 1012.9 |
| 20260509075741 | 55 | 255 | 0.0 | 0.0 | 0.00 | 0.00 | 0.00 | 65 | 1012.7 |
| 20260509075238 | 55 | 289 | 0.9 | 1.7 | 0.00 | 0.00 | 0.00 | 62 | 1012.7 |
| 20260509074734 | 55 | 230 | 0.0 | 0.0 | 0.00 | 0.00 | 0.00 | 64 | 1012.4 |
| 20260509074232 | 55 | 134 | 0.0 | 0.0 | 0.00 | 0.00 | 0.00 | 62 | 1012.2 |
| 20260509073728 | 55 | 89 | 0.0 | 0.0 | 0.00 | 0.00 | 0.00 | 62 | 1012.1 |
| 20260509073225 | 54 | 126 | 0.0 | 0.0 | 0.00 | 0.00 | 0.00 | 63 | 1012.1 |
| 20260509072721 | 55 | 241 | 0.0 | 0.9 | 0.00 | 0.00 | 0.00 | 65 | 1012.1 |
| 20260509072218 | 54 | 114 | 0.0 | 0.0 | 0.00 | 0.00 | 0.00 | 66 | 1012.0 |
| 20260509071715 | 55 | 220 | 0.0 | 1.7 | 0.00 | 0.00 | 0.00 | 68 | 1012.0 |
| 20260509071212 | 54 | 129 | 0.0 | 0.0 | 0.00 | 0.00 | 0.00 | 63 | 1012.0 |
| 20260509070709 | 53 | 225 | 0.0 | 0.0 | 0.00 | 0.00 | 0.00 | 68 | 1011.9 |
| 20260509070205 | 54 | 252 | 0.0 | 0.0 | 0.00 | 0.00 | 0.00 | 67 | 1011.8 |
| 20260509065702 | 54 | 217 | 0.0 | 0.0 | 0.00 | 0.00 | 0.00 | 68 | 1011.7 |
| 20260509065158 | 53 | 135 | 0.0 | 0.0 | 0.00 | 0.00 | 0.00 | 64 | 1011.6 |
| 20260509064655 | 53 | 138 | 0.0 | 0.0 | 0.00 | 0.00 | 0.00 | 64 | 1011.8 |
| 20260509064152 | 52 | 263 | 0.0 | 0.0 | 0.00 | 0.00 | 0.00 | 72 | 1011.7 |
| 20260509063649 | 51 | 201 | 0.0 | 0.0 | 0.00 | 0.00 | 0.00 | 70 | 1011.8 |
| 20260509063145 | 51 | 239 | 0.0 | 0.0 | 0.00 | 0.00 | 0.00 | 77 | 1011.7 |
| 20260509062643 | 51 | 290 | 0.0 | 0.0 | 0.00 | 0.00 | 0.00 | 75 | 1011.9 |
| 20260509062140 | 51 | 150 | 0.0 | 0.0 | 0.00 | 0.00 | 0.00 | 74 | 1011.9 |
| 20260509061636 | 51 | 263 | 0.0 | 0.0 | 0.00 | 0.00 | 0.00 | 77 | 1011.8 |
| 20260509061134 | 51 | 216 | 0.0 | 0.0 | 0.00 | 0.00 | 0.00 | 76 | 1012.1 |
| 20260509060632 | 51 | 283 | 0.0 | 0.0 | 0.00 | 0.00 | 0.00 | 76 | 1012.0 |
| 20260509060127 | 51 | 237 | 0.0 | 0.0 | 0.00 | 0.00 | 0.00 | 74 | 1012.0 |
| 20260509055623 | 51 | 237 | 0.0 | 0.0 | 0.00 | 0.00 | 0.00 | 75 | 1012.1 |
| 20260509055119 | 51 | 242 | 0.0 | 0.0 | 0.00 | 0.00 | 0.00 | 75 | 1012.1 |
| 20260509054616 | 52 | 250 | 0.0 | 0.0 | 0.00 | 0.00 | 0.00 | 75 | 1012.2 |
| 20260509054114 | 51 | 200 | 0.0 | 0.0 | 0.00 | 0.00 | 0.00 | 71 | 1012.3 |
| 20260509053612 | 51 | 229 | 0.0 | 0.0 | 0.00 | 0.00 | 0.00 | 77 | 1012.2 |
| 20260509053109 | 51 | 215 | 0.0 | 0.0 | 0.00 | 0.00 | 0.00 | 77 | 1012.3 |
| 20260509052607 | 52 | 346 | 0.0 | 0.0 | 0.00 | 0.00 | 0.00 | 76 | 1012.5 |
| 20260509052104 | 52 | 127 | 0.0 | 0.0 | 0.00 | 0.00 | 0.00 | 77 | 1012.3 |
| 20260509051602 | 52 | 286 | 0.0 | 0.0 | 0.00 | 0.00 | 0.00 | 77 | 1012.4 |
| 20260509051059 | 53 | 87 | 0.0 | 0.0 | 0.00 | 0.00 | 0.00 | 76 | 1012.4 |
| 20260509050556 | 52 | 220 | 0.0 | 0.0 | 0.00 | 0.00 | 0.00 | 73 | 1012.6 |
| 20260509050052 | 53 | 220 | 0.0 | 0.0 | 0.00 | 0.00 | 0.00 | 75 | 1012.7 |
| 20260509045550 | 52 | 217 | 0.0 | 0.0 | 0.00 | 0.00 | 0.00 | 73 | 1012.9 |